Location: Marne
(34.0056°N, 117.9064°W)
Time: 14:52:13
(UTC+00:00)

CZ-4 R/B - Pass Details

Date: 18 January 2020
Orbit: 533 x 597 km, 97.7° (Epoch: 24 February)

Event Time Altitude Azimuth Distance (km) Brightness Sun altitude
Rises 02:54:26 0° 190° (S) 2,703 5.1 -22.0°
Reaches altitude 10° 02:56:44 10° 201° (SSW) 1,824 4.3 -22.4°
Maximum altitude 03:00:12 30° 263° (W) 1,023 3.3 -23.1°
Drops below altitude 10° 03:03:47 10° 325° (NW) 1,869 4.3 -23.9°
Sets 03:06:10 0° 336° (NNW) 2,783 5.1 -24.4°
